[Date Prev][Date Next][Thread Prev][Thread Next] - [Date Index][Thread Index][Author Index]
2 Line ISS Keps 12-21
- Subject: [sarex] 2 Line ISS Keps 12-21
- From: "Dave Larsen PhD" <doc@xxxxxxxxxxx>
- Date: Mon, 20 Dec 2004 16:26:25 -0800
ISS
1 25544U 98067A 04355.85069564 .00020916 00000-0 16356-3 0 4087
2 25544 51.6385 92.8798 0004138 123.3875 336.0340 15.71582104347645
----
Via the sarex mailing list at AMSAT.ORG courtesy of AMSAT-NA.
To unsubscribe, send "unsubscribe sarex" to Majordomo@amsat.org
AMSAT Home